Lexington, NC

8:10 AM EDT on April 21, 2018 (GMT -0400)
Davidson County

Weather History for KEXX - February, 2013

Change the Weather History Date:

Tuesday, February 19, 2013

  Actual Average (KINT) Record (KINT)
Temperature  
Mean Temperature 38 °F -  
Max Temperature 45 °F 50 °F 72 °F (2014)
Min Temperature 32 °F 33 °F 5 °F (1968)
Degree Days  
Heating Degree Days 26    
Moisture  
Dew Point 34 °F    
Average Humidity 84    
Maximum Humidity 100    
Minimum Humidity 51    
Precipitation  
Precipitation 0.10 in - - ()
Sea Level Pressure  
Sea Level Pressure 30.01 in    
Wind  
Wind Speed 4 mph (SSW)    
Max Wind Speed 10 mph    
Max Gust Speed 17 mph    
Visibility 8 miles    
Events Rain    
Averages and records for this station are not official NWS values.
T = Trace of Precipitation, MM = Missing Value Source: NWS Daily Summary

Daily Weather History Graph

Daily Weather History Graph

Search for Another Location

Airport or City:

Astronomy

Feb. 19, 2013 Rise Set
Actual Time 7:03 AM EST 6:07 PM EST
Civil Twilight 6:37 AM EST 6:33 PM EST
Nautical Twilight 6:07 AM EST 7:02 PM EST
Astronomical Twilight 5:37 AM EST 7:32 PM EST
Moon 12:43 PM EST (2/19) 2:28 AM EST (2/19)
Length of Visible Light 11h 55m
Length of Day
11h 03m
Waxing Gibbous, 67% of the Moon is Illuminated
Feb 19
Waxing Gibbous
Feb 25
Full
Mar 4
Last Quarter
Mar 11
New
Mar 19
First Quarter

Hourly Weather History & Observations

Time (EST) Temp. Windchill Dew Point Humidity Pressure Visibility Wind Dir Wind Speed Gust Speed Precip Events Conditions
12:15 AM 38.1 °F 33.7 °F 25.3 °F 60% 30.21 in 10.0 mi South 5.8 mph - N/A   Clear
12:35 AM 37.4 °F - 25.5 °F 62% 30.21 in 10.0 mi Calm Calm - N/A   Clear
12:55 AM 36.7 °F 32.9 °F 25.2 °F 63% 30.20 in 10.0 mi SSE 4.6 mph - N/A   Clear
1:15 AM 35.8 °F 33.0 °F 25.3 °F 66% 30.20 in 10.0 mi South 3.5 mph - N/A   Clear
1:35 AM 36.0 °F 32.1 °F 25.7 °F 66% 30.19 in 10.0 mi South 4.6 mph - N/A   Clear
1:55 AM 35.8 °F 30.9 °F 25.7 °F 67% 30.19 in 10.0 mi South 5.8 mph - N/A   Clear
2:15 AM 35.2 °F 31.2 °F 25.5 °F 68% 30.16 in 10.0 mi South 4.6 mph - N/A   Clear
2:35 AM 34.7 °F - 25.5 °F 69% 30.15 in 10.0 mi Calm Calm - N/A   Clear
2:55 AM 34.5 °F - 25.3 °F 69% 30.14 in 10.0 mi Calm Calm - N/A   Clear
3:15 AM 33.6 °F - 24.8 °F 70% 30.13 in 10.0 mi Calm Calm - N/A   Clear
3:35 AM 33.3 °F 30.2 °F 24.6 °F 71% 30.12 in 10.0 mi South 3.5 mph - N/A   Clear
3:55 AM 33.3 °F 30.2 °F 24.8 °F 71% 30.12 in 10.0 mi South 3.5 mph - N/A   Scattered Clouds
4:15 AM 32.9 °F - 24.8 °F 72% 30.10 in 10.0 mi Calm Calm - N/A   Scattered Clouds
4:35 AM 32.9 °F 29.8 °F 25.2 °F 73% 30.10 in 10.0 mi SSE 3.5 mph - N/A   Clear
4:55 AM 34.0 °F 31.0 °F 25.9 °F 72% 30.10 in 10.0 mi South 3.5 mph - N/A   Clear
5:15 AM 34.7 °F 31.8 °F 26.4 °F 72% 30.10 in 10.0 mi SSW 3.5 mph - N/A   Mostly Cloudy
5:35 AM 35.6 °F 31.7 °F 26.6 °F 70% 30.10 in 10.0 mi South 4.6 mph - N/A   Mostly Cloudy
5:55 AM 35.4 °F 32.6 °F 26.6 °F 70% 30.09 in 10.0 mi South 3.5 mph - N/A   Mostly Cloudy
6:15 AM 35.6 °F 32.8 °F 26.6 °F 70% 30.09 in 10.0 mi SSE 3.5 mph - N/A   Mostly Cloudy
6:55 AM 35.8 °F - 27.0 °F 70% 30.08 in 10.0 mi Calm Calm - N/A   Overcast
7:15 AM 36.3 °F - 27.7 °F 71% 30.08 in 10.0 mi Calm Calm - N/A   Overcast
7:35 AM 36.7 °F - 28.8 °F 73% 30.08 in 10.0 mi Calm Calm - N/A   Overcast
7:55 AM 36.7 °F - 29.3 °F 75% 30.08 in 10.0 mi Calm Calm - N/A Rain Light Rain
8:15 AM 35.8 °F - 32.0 °F 86% 30.09 in 7.0 mi Calm Calm - N/A Rain Light Rain
8:35 AM 35.6 °F - 33.4 °F 92% 30.08 in 4.0 mi Calm Calm - 0.02 in Rain Rain
8:55 AM 35.4 °F 32.6 °F 35.4 °F 100% 30.06 in 2.0 mi SE 3.5 mph - 0.04 in Rain Rain
9:15 AM 35.6 °F 32.8 °F 35.6 °F 100% 30.05 in 2.0 mi SSE 3.5 mph - 0.02 in Rain Rain
9:35 AM 35.6 °F - 35.6 °F 100% 30.05 in 2.5 mi Calm Calm - 0.03 in Rain Light Rain
9:55 AM 36.1 °F - 36.1 °F 100% 30.03 in 4.0 mi Calm Calm - 0.04 in   Drizzle
10:35 AM 36.9 °F 33.1 °F 36.9 °F 100% 30.01 in 2.5 mi South 4.6 mph - N/A Rain Light Rain
10:55 AM 37.6 °F 34.0 °F 37.6 °F 100% 30.01 in 2.5 mi South 4.6 mph - N/A Rain Rain
11:15 AM 38.3 °F 34.8 °F 38.3 °F 100% 30.00 in 4.0 mi South 4.6 mph - 0.01 in   Light Drizzle
11:35 AM 38.8 °F 36.5 °F 38.8 °F 100% 29.99 in 2.0 mi SSW 3.5 mph - 0.01 in   Drizzle
11:55 AM 39.7 °F 35.6 °F 39.7 °F 100% 29.98 in 1.5 mi South 5.8 mph - 0.01 in   Heavy Drizzle
12:15 PM 40.5 °F 34.1 °F 40.5 °F 100% 29.96 in 2.0 mi SSW 10.4 mph 17.3 mph 0.01 in   Heavy Drizzle
12:35 PM 41.2 °F 36.0 °F 41.2 °F 100% 29.94 in 5.0 mi SSW 8.1 mph - 0.01 in   Overcast
12:55 PM 42.1 °F 37.1 °F 42.1 °F 100% 29.93 in 10.0 mi SSW 8.1 mph - 0.01 in   Overcast
1:15 PM 43.0 °F 37.7 °F 43.0 °F 100% 29.91 in 10.0 mi SSW 9.2 mph 16.1 mph N/A   Overcast
1:35 PM 43.3 °F 39.2 °F 43.3 °F 100% 29.90 in 10.0 mi SSW 6.9 mph 17.3 mph N/A   Overcast
1:55 PM 43.9 °F 38.3 °F 43.9 °F 100% 29.90 in 10.0 mi SW 10.4 mph 17.3 mph N/A   Overcast
2:15 PM 44.2 °F 39.7 °F 44.2 °F 100% 29.89 in 10.0 mi SW 8.1 mph - N/A   Overcast
2:35 PM 44.6 °F 40.2 °F 44.6 °F 100% 29.88 in 10.0 mi SSW 8.1 mph - N/A   Overcast
2:55 PM 44.8 °F 39.9 °F 42.8 °F 93% 29.88 in 10.0 mi SW 9.2 mph - N/A   Overcast
3:15 PM 44.6 °F 40.2 °F 42.3 °F 91% 29.88 in 10.0 mi SW 8.1 mph 16.1 mph N/A   Overcast
3:35 PM 45.0 °F 41.8 °F 42.3 °F 90% 29.87 in 10.0 mi SW 5.8 mph 17.3 mph N/A   Overcast
3:55 PM 45.3 °F 42.3 °F 42.3 °F 89% 29.87 in 10.0 mi SW 5.8 mph - N/A   Overcast
4:15 PM 45.3 °F 42.3 °F 42.1 °F 88% 29.87 in 10.0 mi SW 5.8 mph - N/A   Overcast
4:35 PM 45.5 °F 41.8 °F 41.7 °F 87% 29.87 in 10.0 mi SW 6.9 mph - N/A   Overcast
4:55 PM 45.5 °F 40.8 °F 41.7 °F 87% 29.87 in 10.0 mi SW 9.2 mph - N/A   Overcast
5:15 PM 45.5 °F 41.8 °F 41.7 °F 87% 29.88 in 10.0 mi SW 6.9 mph - N/A   Overcast
5:35 PM 45.0 °F 43.5 °F 42.1 °F 90% 29.89 in 10.0 mi SW 3.5 mph - N/A   Overcast
5:55 PM 44.8 °F 42.4 °F 41.9 °F 90% 29.90 in 10.0 mi SW 4.6 mph - N/A   Overcast
6:15 PM 44.6 °F 43.1 °F 41.5 °F 89% 29.91 in 10.0 mi SW 3.5 mph - N/A   Overcast
7:35 PM 40.6 °F - 40.6 °F 100% 29.94 in 10.0 mi Calm Calm - N/A   Clear
7:55 PM 38.3 °F - 38.3 °F 100% 29.95 in 5.0 mi Calm Calm - N/A   Clear
8:15 PM 37.8 °F - 37.8 °F 100% 29.95 in 4.0 mi Calm Calm - N/A   Clear
8:35 PM 36.9 °F - 36.9 °F 100% 29.95 in 1.8 mi Calm Calm - N/A   Mist
8:55 PM 37.2 °F - 37.2 °F 100% 29.95 in 0.8 mi Calm Calm - N/A   Mist
9:15 PM 36.3 °F - 36.3 °F 100% 29.96 in 0.8 mi Calm Calm - N/A   Mist
9:35 PM 36.0 °F - 36.0 °F 100% 29.96 in 1.0 mi Calm Calm - N/A   Mist
9:55 PM 34.9 °F - 34.9 °F 100% 29.96 in 1.2 mi Calm Calm - N/A   Mist
10:15 PM 38.5 °F 34.1 °F 31.1 °F 75% 29.97 in 10.0 mi WNW 5.8 mph - N/A   Clear
10:35 PM 38.1 °F 35.7 °F 28.8 °F 69% 29.97 in 10.0 mi NW 3.5 mph - N/A   Clear
10:55 PM 38.8 °F 35.4 °F 25.3 °F 58% 29.98 in 10.0 mi WNW 4.6 mph - N/A   Clear
11:15 PM 38.7 °F 36.3 °F 23.4 °F 54% 29.98 in 10.0 mi WNW 3.5 mph - N/A   Clear
11:35 PM 37.6 °F - 22.1 °F 54% 29.99 in 10.0 mi Calm Calm - N/A   Clear
11:55 PM 37.2 °F - 20.5 °F 51% 29.99 in 10.0 mi Calm Calm - N/A   Clear